Weather History for KSFZ - November, 2012

Change the Weather History Date:

Friday, November 30, 2012

  Actual Average Record
Temperature  
Mean Temperature 32 °F -  
Max Temperature 35 °F 43 °F 66 °F (2006)
Min Temperature 30 °F 28 °F 12 °F (2013)
Degree Days  
Heating Degree Days 32    
Moisture  
Dew Point 15 °F    
Average Humidity 52    
Maximum Humidity 80    
Minimum Humidity 30    
Precipitation  
Precipitation 0.00 in - - ()
Sea Level Pressure  
Sea Level Pressure 30.40 in    
Wind  
Wind Speed 7 mph (NNE)    
Max Wind Speed 16 mph    
Max Gust Speed -    
Visibility 10 miles    
Events      
Averages and records for this station are not official NWS values.
T = Trace of Precipitation, MM = Missing Value Source: NWS Daily Summary

Daily Weather History Graph

Daily Weather History Graph

Search for Another Location

Airport or City:

Trip Planner

Search our weather history database for the weather conditions in past years. The results will help you decide how hot, cold, wet, or windy it might be!

Date:

Astronomy

Nov. 30, 2012 Rise Set
Actual Time 6:53 AM EST 4:15 PM EST
Civil Twilight 6:22 AM EST 4:46 PM EST
Nautical Twilight 5:47 AM EST 5:21 PM EST
Astronomical Twilight 5:14 AM EST 5:55 PM EST
Moon 6:08 PM EST (11/30) 8:23 AM EST (11/30)
Length of Visible Light 10h 24m
Length of Day
9h 22m
Waning Gibbous, 96% of the Moon is Illuminated
Nov 30
Waning Gibbous
Dec 6
Last Quarter
Dec 13
New
Dec 20
First Quarter
Dec 28
Full

Hourly Weather History & Observations

Time (EST) Temp. Windchill Dew Point Humidity Pressure Visibility Wind Dir Wind Speed Gust Speed Precip Events Conditions
12:15 AM 35.6 °F 30.7 °F 23.0 °F 60% 30.22 in 10.0 mi SSW 5.8 mph - N/A   Overcast
12:35 AM 35.6 °F 30.7 °F 23.0 °F 60% 30.23 in 10.0 mi SW 5.8 mph - N/A   Overcast
12:55 AM 35.6 °F 30.7 °F 21.2 °F 56% 30.23 in 10.0 mi SW 5.8 mph - N/A   Scattered Clouds
1:15 AM 35.6 °F 31.7 °F 21.2 °F 56% 30.23 in 10.0 mi SSW 4.6 mph - N/A   Clear
1:35 AM 33.8 °F 28.6 °F 21.2 °F 60% 30.24 in 10.0 mi SW 5.8 mph - N/A   Clear
1:55 AM 33.8 °F 27.7 °F 21.2 °F 60% 30.25 in 10.0 mi WSW 6.9 mph - N/A   Clear
2:15 AM 35.6 °F 29.9 °F 21.2 °F 56% 30.25 in 10.0 mi WSW 6.9 mph - N/A   Clear
2:35 AM 33.8 °F 29.6 °F 21.2 °F 60% 30.25 in 10.0 mi SW 4.6 mph - N/A   Clear
2:55 AM 33.8 °F 29.6 °F 21.2 °F 60% 30.25 in 10.0 mi WSW 4.6 mph - N/A   Clear
3:15 AM 33.8 °F 29.6 °F 21.2 °F 60% 30.25 in 10.0 mi WSW 4.6 mph - N/A   Clear
3:35 AM 33.8 °F 29.6 °F 21.2 °F 60% 30.25 in 10.0 mi WSW 4.6 mph - N/A   Clear
3:55 AM 33.8 °F 28.6 °F 21.2 °F 60% 30.26 in 10.0 mi West 5.8 mph - N/A   Clear
4:15 AM 33.8 °F 28.6 °F 21.2 °F 60% 30.28 in 10.0 mi North 5.8 mph - N/A   Clear
4:35 AM 32.0 °F 27.5 °F 21.2 °F 64% 30.29 in 10.0 mi NNW 4.6 mph - N/A   Clear
4:55 AM 30.2 °F 26.7 °F 21.2 °F 69% 30.30 in 10.0 mi NNW 3.5 mph - N/A   Clear
5:15 AM 30.2 °F 22.6 °F 23.0 °F 75% 30.31 in 10.0 mi NNE 8.1 mph - N/A   Partly Cloudy
5:35 AM 30.2 °F 22.6 °F 24.8 °F 80% 30.32 in 10.0 mi NNE 8.1 mph - N/A   Mostly Cloudy
5:55 AM 32.0 °F 24.8 °F 24.8 °F 75% 30.33 in 10.0 mi NNE 8.1 mph - N/A   Overcast
6:15 AM 30.2 °F 24.3 °F 23.0 °F 75% 30.34 in 10.0 mi NNE 5.8 mph - N/A   Mostly Cloudy
6:35 AM 30.2 °F 21.9 °F 23.0 °F 75% 30.35 in 10.0 mi North 9.2 mph - N/A   Scattered Clouds
6:55 AM 30.2 °F 23.4 °F 23.0 °F 75% 30.36 in 10.0 mi North 6.9 mph - N/A   Clear
7:15 AM 30.2 °F 24.3 °F 23.0 °F 75% 30.37 in 10.0 mi NNE 5.8 mph - N/A   Clear
7:35 AM 30.2 °F 23.4 °F 24.8 °F 80% 30.37 in 10.0 mi NNE 6.9 mph - N/A   Clear
7:55 AM 30.2 °F 20.8 °F 23.0 °F 75% 30.38 in 10.0 mi NNE 11.5 mph - N/A   Clear
8:15 AM 30.2 °F 20.2 °F 23.0 °F 75% 30.39 in 10.0 mi NNE 12.7 mph - N/A   Clear
8:35 AM 30.2 °F 18.9 °F 21.2 °F 69% 30.40 in 10.0 mi NNE 16.1 mph - N/A   Clear
8:55 AM 32.0 °F 22.1 °F 21.2 °F 64% 30.41 in 10.0 mi NNE 13.8 mph - N/A   Clear
9:15 AM 32.0 °F 23.6 °F 19.4 °F 60% 30.42 in 10.0 mi NNE 10.4 mph - N/A   Clear
9:35 AM 32.0 °F 22.5 °F 17.6 °F 55% 30.43 in 10.0 mi North 12.7 mph - N/A   Clear
9:55 AM 32.0 °F 22.5 °F 15.8 °F 51% 30.44 in 10.0 mi NNE 12.7 mph - N/A   Mostly Cloudy
10:15 AM 32.0 °F 23.0 °F 15.8 °F 51% 30.44 in 10.0 mi NNE 11.5 mph - N/A   Overcast
10:35 AM 32.0 °F 23.6 °F 15.8 °F 51% 30.44 in 10.0 mi NNE 10.4 mph - N/A   Mostly Cloudy
10:55 AM 33.8 °F 25.8 °F 12.2 °F 41% 30.44 in 10.0 mi North 10.4 mph - N/A   Clear
11:15 AM 33.8 °F 25.8 °F 10.4 °F 38% 30.43 in 10.0 mi North 10.4 mph - N/A   Clear
11:35 AM 33.8 °F 27.0 °F 8.6 °F 35% 30.42 in 10.0 mi North 8.1 mph - N/A   Scattered Clouds
11:55 AM 33.8 °F 27.0 °F 8.6 °F 35% 30.42 in 10.0 mi ENE 8.1 mph - N/A   Partly Cloudy
12:15 PM 33.8 °F 25.8 °F 8.6 °F 35% 30.42 in 10.0 mi NNE 10.4 mph - N/A   Clear
12:35 PM 33.8 °F 27.0 °F 8.6 °F 35% 30.42 in 10.0 mi North 8.1 mph - N/A   Clear
12:55 PM 35.6 °F 28.6 °F 8.6 °F 33% 30.41 in 10.0 mi North 9.2 mph - N/A   Clear
1:15 PM 35.6 °F 29.9 °F 8.6 °F 33% 30.41 in 10.0 mi NNE 6.9 mph - N/A   Clear
1:35 PM 35.6 °F 28.0 °F 6.8 °F 30% 30.42 in 10.0 mi NNE 10.4 mph - N/A   Clear
1:55 PM 33.8 °F 27.0 °F 6.8 °F 32% 30.41 in 10.0 mi North 8.1 mph - N/A   Scattered Clouds
2:35 PM 33.8 °F 29.6 °F 6.8 °F 32% 30.42 in 10.0 mi ENE 4.6 mph - N/A   Mostly Cloudy
2:55 PM 33.8 °F 27.7 °F 6.8 °F 32% 30.43 in 10.0 mi NNE 6.9 mph - N/A   Partly Cloudy
3:15 PM 33.8 °F 28.6 °F 6.8 °F 32% 30.44 in 10.0 mi NNE 5.8 mph - N/A   Clear
3:35 PM 33.8 °F 27.0 °F 6.8 °F 32% 30.44 in 10.0 mi NNE 8.1 mph - N/A   Scattered Clouds
3:55 PM 32.0 °F 24.2 °F 5.0 °F 32% 30.45 in 10.0 mi NNE 9.2 mph - N/A   Partly Cloudy
4:15 PM 32.0 °F 26.4 °F 5.0 °F 32% 30.45 in 10.0 mi NE 5.8 mph - N/A   Clear
4:35 PM 30.2 °F 24.3 °F 3.2 °F 32% 30.46 in 10.0 mi NE 5.8 mph - N/A   Mostly Cloudy
4:55 PM 30.2 °F 23.4 °F 3.2 °F 32% 30.46 in 10.0 mi NE 6.9 mph - N/A   Scattered Clouds
5:15 PM 30.2 °F 24.3 °F 3.2 °F 32% 30.47 in 10.0 mi ENE 5.8 mph - N/A   Partly Cloudy
5:35 PM 30.2 °F 25.4 °F 6.8 °F 37% 30.47 in 10.0 mi East 4.6 mph - N/A   Clear
5:55 PM 30.2 °F 25.4 °F 8.6 °F 40% 30.46 in 10.0 mi East 4.6 mph - N/A   Scattered Clouds
6:15 PM 30.2 °F 24.3 °F 6.8 °F 37% 30.47 in 10.0 mi ENE 5.8 mph - N/A   Overcast
6:35 PM 30.2 °F 24.3 °F 6.8 °F 37% 30.48 in 10.0 mi ENE 5.8 mph - N/A   Overcast
6:55 PM 30.2 °F 25.4 °F 6.8 °F 37% 30.49 in 10.0 mi ENE 4.6 mph - N/A   Scattered Clouds
7:15 PM 30.2 °F 25.4 °F 8.6 °F 40% 30.50 in 10.0 mi East 4.6 mph - N/A   Mostly Cloudy
7:35 PM 30.2 °F 26.7 °F 10.4 °F 44% 30.50 in 10.0 mi ENE 3.5 mph - N/A   Mostly Cloudy
8:15 PM 30.2 °F 25.4 °F 12.2 °F 47% 30.50 in 10.0 mi East 4.6 mph - N/A   Mostly Cloudy
8:35 PM 30.2 °F 26.7 °F 15.8 °F 55% 30.51 in 10.0 mi East 3.5 mph - N/A   Mostly Cloudy
8:55 PM 30.2 °F 26.7 °F 15.8 °F 55% 30.51 in 10.0 mi ENE 3.5 mph - N/A   Mostly Cloudy
9:15 PM 30.2 °F 24.3 °F 15.8 °F 55% 30.50 in 10.0 mi East 5.8 mph - N/A   Overcast
9:35 PM 30.2 °F 24.3 °F 15.8 °F 55% 30.50 in 10.0 mi NE 5.8 mph - N/A   Overcast
9:55 PM 30.2 °F 24.3 °F 15.8 °F 55% 30.51 in 10.0 mi ENE 5.8 mph - N/A   Overcast
10:15 PM 30.2 °F 25.4 °F 15.8 °F 55% 30.51 in 10.0 mi ENE 4.6 mph - N/A   Overcast
10:35 PM 30.2 °F 25.4 °F 15.8 °F 55% 30.51 in 10.0 mi ENE 4.6 mph - N/A   Overcast
10:55 PM 30.2 °F 25.4 °F 15.8 °F 55% 30.51 in 10.0 mi ENE 4.6 mph - N/A   Overcast
11:15 PM 30.2 °F 24.3 °F 15.8 °F 55% 30.52 in 10.0 mi ENE 5.8 mph - N/A   Overcast
11:35 PM 30.2 °F 23.4 °F 15.8 °F 55% 30.51 in 10.0 mi ENE 6.9 mph - N/A   Overcast